TimeEDT,TemperatureF,Dew PointF,Humidity,Sea Level PressureIn,VisibilityMPH,Wind Direction,Wind SpeedMPH,Gust SpeedMPH,PrecipitationIn,Events,Conditions,WindDirDegrees,DateUTC
12:54 AM,75.9,72.0,87,29.68,10.0,SSW,10.4,-,N/A,,Scattered Clouds,210,2013-06-28 04:54:00
1:54 AM,75.9,72.0,87,29.67,10.0,WSW,8.1,-,N/A,,Scattered Clouds,250,2013-06-28 05:54:00
2:54 AM,73.9,71.1,91,29.65,10.0,South,6.9,-,N/A,,Scattered Clouds,190,2013-06-28 06:54:00
3:54 AM,73.9,71.1,91,29.64,7.0,Calm,Calm,-,N/A,,Scattered Clouds,0,2013-06-28 07:54:00
4:54 AM,73.9,71.1,91,29.64,7.0,SSW,5.8,-,N/A,,Scattered Clouds,200,2013-06-28 08:54:00
5:54 AM,73.0,71.1,93,29.64,5.0,SSW,6.9,-,N/A,,Mostly Cloudy,200,2013-06-28 09:54:00
6:37 AM,75.2,71.6,89,29.64,7.0,SSW,4.6,-,N/A,,Mostly Cloudy,200,2013-06-28 10:37:00
6:54 AM,75.0,72.0,90,29.65,7.0,SSW,5.8,-,N/A,,Scattered Clouds,210,2013-06-28 10:54:00
7:54 AM,78.1,72.0,81,29.65,10.0,SW,6.9,-,N/A,,Mostly Cloudy,230,2013-06-28 11:54:00
8:54 AM,82.0,69.1,65,29.63,10.0,West,9.2,-,N/A,,Mostly Cloudy,270,2013-06-28 12:54:00
9:54 AM,86.0,69.1,57,29.62,10.0,West,11.5,-,N/A,,Mostly Cloudy,260,2013-06-28 13:54:00
10:54 AM,87.1,70.0,57,29.63,10.0,WSW,11.5,-,N/A,,Scattered Clouds,240,2013-06-28 14:54:00
11:54 AM,88.0,69.1,53,29.64,10.0,SW,10.4,-,N/A,,Scattered Clouds,230,2013-06-28 15:54:00
12:54 PM,90.0,66.9,46,29.62,10.0,WSW,11.5,19.6,N/A,,Mostly Cloudy,250,2013-06-28 16:54:00
1:54 PM,91.9,66.9,44,29.60,10.0,SW,11.5,17.3,N/A,,Scattered Clouds,220,2013-06-28 17:54:00
2:54 PM,91.0,70.0,50,29.57,10.0,South,15.0,19.6,N/A,,Scattered Clouds,190,2013-06-28 18:54:00
3:54 PM,90.0,69.1,50,29.55,10.0,SSW,16.1,25.3,N/A,,Mostly Cloudy,200,2013-06-28 19:54:00
4:54 PM,88.0,71.1,57,29.55,10.0,SSW,17.3,-,0.00,Thunderstorm,Thunderstorm,210,2013-06-28 20:54:00
5:21 PM,87.8,71.6,58,29.54,10.0,SSW,15.0,21.9,0.00,,Mostly Cloudy,210,2013-06-28 21:21:00
5:54 PM,84.9,72.0,65,29.52,10.0,SSW,12.7,-,0.00,,Mostly Cloudy,200,2013-06-28 21:54:00
6:54 PM,84.9,71.1,63,29.54,10.0,SSW,16.1,-,N/A,,Scattered Clouds,210,2013-06-28 22:54:00
7:54 PM,84.0,69.1,61,29.55,10.0,SSW,11.5,-,N/A,,Mostly Cloudy,210,2013-06-28 23:54:00
8:54 PM,79.0,66.0,64,29.56,10.0,SSW,12.7,-,N/A,,Scattered Clouds,200,2013-06-29 00:54:00
9:54 PM,77.0,68.0,74,29.59,10.0,SSW,15.0,-,N/A,,Scattered Clouds,200,2013-06-29 01:54:00
10:54 PM,75.9,69.1,79,29.59,10.0,SSW,10.4,-,N/A,,Scattered Clouds,200,2013-06-29 02:54:00
11:54 PM,75.9,70.0,82,29.60,10.0,SSW,9.2,-,N/A,,Mostly Cloudy,200,2013-06-29 03:54:00